User: anonymous   Login
Location: Unspecified
(0.0000°N, 0.0000°E)
Time: 05:36:11
(UTC+01:00)
Language:

ARIANE 5 R/B - Orbit

View from above orbital plane
View from above orbital plane
View from above satellite
View from above satellite

Ground track
Ground track

The orbit data is extracted from the following two-line orbital elements,

1 27510U 02040C   16334.47026689 -.00000144 +00000-0 -14187-3 0  9995
2 27510 005.2383 291.9242 7167004 176.8430 006.1492 02.27196919118346
Epoch (UTC): 29 November 2016 11:17:11
Eccentricity: 0.7167004
inclination: 5.2383°
perigee height: 546 km
apogee height: 35581 km
right ascension of ascending node: 291.9242°
argument of perigee: 176.8430°
revolutions per day: 2.27196919
mean anomaly at epoch: 6.1492°
orbit number at epoch: 11834

The dashed part of the orbit path shows where the satellite is in the earth's shadow,  

DLR